CZ-6A DEB, 54309

Orbit data source: Space-Track

CZ-6A DEB, 54309 is space debris in SSO originally from a launch on Fri, 11 Nov 2022 UTC launched from the Taiyaun Space Center, China (TSC). Debris objects in space refer to the collection of defunct objects orbiting the Earth. Examples of debris include non-operational satellites, rocket bodies, and fragments generated from explosions, collisions, or faulty payload assembly.

Loading next visibility...
Identifier
54309, 2022-151BC
Orbit
SSO
Country
Flag of CNCN / PRC
Related business
Manufacturer
SAST
Mission
Spacecraft
Bus & Motor
Unknown
Mass
Unknown
Launch date (UTC)
2022-11-11 (4 years ago)
Launch vehicle
Unknown
Launch site
Taiyaun Space Center, China (TSC)
Object type
Payload
Rocket body
Debris
Shape & HBR
Unknown shape, 0.3 m
Radar Cross Section
Medium (>0.1 m² and <1 m²)

Expand to show TLE details & history
Last TLE update: 16 hours ago

TLE from 16 hours ago
0 CZ-6A DEB
1 54309U 22151BC  26262.92427196  .00000261  00000-0  16314-3 0  9997
2 54309  98.8348 265.7243 0037603  52.3599 308.0976 14.12731474198076
Epoch: 2026-09-19T22:10Z
TLE epoch observation values (Epoch: 2026-09-19T22:10:57.097Z)
Latitude
0.00003°
Longitude
-65.83944°
Altitude
836.23 km
Speed
7.443 km/s
True Right ascension
17h 42m 53s
True Declination
0° 00' 00"
Sunlit
Object was in daylight at epoch
Visualization orbit readout
Latitude
Unknown
Longitude
Unknown
Altitude
Unknown
Speed
Unknown
Apparent Right ascension
Unknown
Apparent Declination
Unknown
Sunlit
N/A
Visualization observer readout
Local Sidereal Time
06:58:54
Azimuth
Unknown
Elevation
Unknown
Doppler factor
Unknown
Orbital elements
Apogee altitude
874.383 km
Perigee altitude
820.044 km
Semi-major axis
7,225.351 km
Eccentricity
0.00376
Inclination
98.8348°
RAAN
265.7243°
Arg. of periapsis
52.3599°
True anomaly
307.75752°
Mean anomaly
308.0976°
Eccentric anomaly
307.92766°
Mean motion
3.5339 °/min
Orbital period
101.87 mins
BSTAR
0.00016314
Loading maneuver chart data...
Computing Atmospheric mass density...
Loading historical data...
Loading historical data...
Loading historical data...
Loading historical data...
Loading historical data...
Loading historical data...
Loading historical data...

Documentation

Showing up to 5 results
|